Flag for U.S.A. Weather past 2 weeks in Jackson, Wyoming, U.S.A.

Now
34 °F

Scattered showers. Broken clouds.


Feels Like: 25 °F
Forecast: 26 / 38 °F
Wind: 13 mph from Southwest

Location: Jackson Hole

Current Time: Apr 1, 2015 at 12:26:08 PM

Latest Report: Apr 1, 2015 at 10:51 AM


Visibility: 10 mi

Pressure: 30.00 "Hg

Humidity: 56%

Dew point: 19 °F

Location of JacksonLocation

Historic Weather in Jackson — Graph

°F

Jackson temperature yesterday

Maximum temperature yesterday: 64 °F (at 3:51 PM)
Minimum temperature yesterday: 25 °F (at 5:55 AM)
Average temperature yesterday: 38 °F

Past Weeks' High & Low Weather Summary

 TemperatureHumidityPressure
High64 °F (Mar 31, 3:51 PM)100% (Mar 19, 2:55 AM)30.39 "Hg (Mar 19, 2:55 AM)
Low16 °F (Mar 26, 6:51 AM)18% (Mar 30, 5:52 PM)29.77 "Hg (Mar 31, 7:51 PM)
Average34 °F71%30.14 "Hg
* Reported Mar 17 10:51 AM — Apr 1 10:51 AM, Jackson, Weather by CustomWeather, © 2015

Note: Actual official high and low records may vary slightly from our data, if they occured in-between our weather recording intervals... More about our weather records

Advertising

Jackson weather history for previous 24 hours

 ConditionsComfort  
Time TempWeatherWind HumidityBarometerVisibility
10:51 AM
Wed, Apr 1
34 °FScattered showers. Broken clouds.13 mph56%30.00 "Hg10 mi
9:51 AM34 °FRain showers. More clouds than sun.16 mph51%29.99 "Hg10 mi
8:51 AM32 °FScattered showers. Overcast.12 mph69%29.97 "Hg6 mi
7:51 AM30 °FLight snow. Overcast.17 mph64%29.95 "Hg7 mi
6:51 AM32 °FPassing clouds.12 mph55%29.92 "Hg10 mi
6:35 AM32 °FPassing clouds.17 mph55%29.90 "Hg10 mi
6:15 AM32 °FPassing clouds.14 mph47%29.91 "Hg10 mi
5:55 AM32 °FClear.13 mph51%29.90 "Hg10 mi
5:35 AM34 °FClear.13 mph44%29.89 "Hg10 mi
5:15 AM36 °FPassing clouds.17 mph44%29.88 "Hg10 mi
4:55 AM36 °FPassing clouds.21 mph48%29.87 "Hg10 mi
4:35 AM37 °FClear.17 mph45%29.85 "Hg10 mi
4:15 AM37 °FPassing clouds.15 mph45%29.85 "Hg10 mi
3:55 AM39 °FMostly cloudy.10 mph42%29.86 "Hg10 mi
3:35 AM39 °FOvercast.9 mph45%29.87 "Hg10 mi
3:15 AM41 °FOvercast.8 mph42%29.88 "Hg10 mi
2:55 AM41 °FOvercast.16 mph49%29.87 "Hg10 mi
2:35 AM43 °FOvercast.14 mph49%29.88 "Hg10 mi
2:15 AM43 °FOvercast.10 mph49%29.87 "Hg10 mi
1:55 AM43 °FOvercast.10 mph49%29.87 "Hg10 mi
1:35 AM45 °FOvercast.16 mph49%29.86 "Hg10 mi
1:15 AM45 °FOvercast.18 mph49%29.84 "Hg10 mi
12:55 AM45 °FOvercast.10 mph53%29.84 "Hg10 mi
12:35 AM46 °FOvercast.5 mph50%29.83 "Hg10 mi
12:15 AM46 °FMostly cloudy.14 mph50%29.83 "Hg10 mi
11:55 PM
Tue, Mar 31
45 °FPassing clouds.8 mph57%29.81 "Hg10 mi
11:35 PM45 °FPassing clouds.7 mph61%29.81 "Hg10 mi
11:15 PM46 °FOvercast.10 mph57%29.81 "Hg10 mi
10:55 PM46 °FMostly cloudy.5 mph57%29.82 "Hg10 mi
10:35 PM45 °FMostly cloudy.8 mph66%29.83 "Hg10 mi
10:15 PM46 °FOvercast.18 mph62%29.83 "Hg10 mi
9:55 PM52 °FPassing clouds.14 mph32%29.81 "Hg10 mi
9:35 PM48 °FPassing clouds.14 mph37%29.79 "Hg10 mi
8:55 PM50 °FClear.7 mph32%29.78 "Hg10 mi
7:51 PM55 °FBroken clouds.8 mph26%29.77 "Hg10 mi
6:53 PM54 °FSunny.7 mph30%29.78 "Hg10 mi
5:54 PM61 °FPartly sunny.10 mph20%29.79 "Hg10 mi
4:56 PM63 °FPartly sunny.8 mph19%29.81 "Hg10 mi
3:51 PM64 °FSunny.14 mph28%29.84 "Hg10 mi
2:51 PM61 °FSunny.16 mph20%29.88 "Hg10 mi
1:51 PM63 °FSunny.18 mph20%29.91 "Hg10 mi
12:51 PM55 °FSunny.No wind33%29.95 "Hg10 mi
Weather by CustomWeather, © 2015

See weather overviewHow to use our weather pages